Weather History for CWOB - July, 2013

Change the Weather History Date:

Saturday, July 6, 2013

  Actual Average Record
Temperature  
Mean Temperature 29 °F -  
Max Temperature 30 °F - - ()
Min Temperature 28 °F - - ()
Degree Days  
Heating Degree Days 36    
Moisture  
Dew Point -    
Average Humidity    
Maximum Humidity    
Minimum Humidity    
Precipitation  
Precipitation 0.00 in - - ()
Sea Level Pressure  
Sea Level Pressure 29.59 in    
Wind  
Wind Speed 13 mph ()    
Max Wind Speed 25 mph    
Max Gust Speed 28 mph    
T = Trace of Precipitation, MM = Missing Value Source: Averaged Metar Reports

Daily Weather History Graph

Daily Weather History Graph

Search for Another Location

Airport or City:

Trip Planner

Search our weather history database for the weather conditions in past years. The results will help you decide how hot, cold, wet, or windy it might be!

Date:

Astronomy

Jul. 06, 2013 Rise Set
Actual Time 3:21 AM ADT 11:20 PM ADT
Civil Twilight 1:53 AM ADT 12:49 AM ADT
Nautical Twilight Sun does not set Sun does not set
Astronomical Twilight Sun does not set Sun does not set
Moon 2:37 AM ADT (7/6) 9:22 PM ADT (7/6)
Length of Visible Light 22h 55m
Length of Day
19h 59m
Waning Crescent, 3% of the Moon is Illuminated
Jul 6
Waning Crescent
Jul 8
New
Jul 16
First Quarter
Jul 22
Full
Jul 29
Last Quarter

Hourly Weather History & Observations

Time (ADT) Temp. Windchill Dew Point Humidity Pressure Visibility Wind Dir Wind Speed Gust Speed Precip Events Conditions
12:00 AM 28.4 °F 18.0 °F - N/A% 29.80 in - South 12.7 mph - N/A   Clear
12:03 AM 28.4 °F 18.5 °F - N/A% 29.68 in - South 11.5 mph - N/A   Clear
12:15 AM 28.4 °F 18.5 °F - N/A% 29.67 in - South 11.5 mph - N/A   Clear
12:27 AM 28.4 °F 18.5 °F - N/A% 29.67 in - South 11.5 mph - N/A   Clear
12:39 AM 28.4 °F 18.5 °F - N/A% 29.66 in - South 11.5 mph - N/A   Clear
12:51 AM 28.4 °F 18.0 °F - N/A% 29.66 in - SSE 12.7 mph - N/A   Clear
1:00 AM 28.4 °F 17.5 °F - N/A% 29.78 in - SSE 13.8 mph - N/A   Clear
1:03 AM 28.4 °F 17.5 °F - N/A% 29.65 in - SSE 13.8 mph - N/A   Clear
1:15 AM 28.4 °F 18.5 °F - N/A% 29.66 in - South 11.5 mph - N/A   Clear
1:27 AM 28.4 °F 19.1 °F - N/A% 29.65 in - SSE 10.4 mph - N/A   Clear
1:39 AM 28.4 °F 19.1 °F - N/A% 29.66 in - South 10.4 mph - N/A   Clear
1:51 AM 28.4 °F 18.5 °F - N/A% 29.66 in - South 11.5 mph - N/A   Clear
2:00 AM 28.4 °F 19.1 °F - N/A% 29.78 in - South 10.4 mph - N/A   Clear
2:03 AM 28.4 °F 19.1 °F - N/A% 29.65 in - South 10.4 mph - N/A   Clear
2:15 AM 28.4 °F 18.5 °F - N/A% 29.65 in - South 11.5 mph - N/A   Clear
2:27 AM 28.4 °F 19.1 °F - N/A% 29.65 in - South 10.4 mph - N/A   Clear
2:39 AM 28.4 °F 17.5 °F - N/A% 29.65 in - South 13.8 mph - N/A   Clear
2:51 AM 28.4 °F 17.5 °F - N/A% 29.65 in - South 13.8 mph - N/A   Clear
3:00 AM 28 °F - - % 29.78 in - South 13.8 mph - -  
3:00 AM 28.4 °F 17.5 °F - N/A% 29.78 in - South 13.8 mph - N/A   Clear
3:03 AM 28.4 °F 17.5 °F - N/A% 29.66 in - South 13.8 mph - N/A   Clear
3:15 AM 28.4 °F 18.0 °F - N/A% 29.66 in - South 12.7 mph - N/A   Clear
3:27 AM 28.4 °F 19.1 °F - N/A% 29.66 in - South 10.4 mph - N/A   Clear
3:39 AM 28.4 °F 18.5 °F - N/A% 29.66 in - South 11.5 mph - N/A   Clear
3:51 AM 28.4 °F 18.5 °F - N/A% 29.65 in - South 11.5 mph - N/A   Clear
4:00 AM 28.4 °F 18.0 °F - N/A% 29.78 in - South 12.7 mph - N/A   Clear
4:03 AM 28.4 °F 17.5 °F - N/A% 29.65 in - South 13.8 mph - N/A   Clear
4:15 AM 28.4 °F 19.1 °F - N/A% 29.65 in - South 10.4 mph - N/A   Clear
4:27 AM 28.4 °F 17.0 °F - N/A% 29.65 in - South 15.0 mph - N/A   Clear
4:39 AM 28.4 °F 16.6 °F - N/A% 29.65 in - South 16.1 mph - N/A   Clear
4:51 AM 28.4 °F 17.0 °F - N/A% 29.65 in - South 15.0 mph - N/A   Clear
5:00 AM 28.4 °F 18.0 °F - N/A% 29.77 in - South 12.7 mph - N/A   Clear
5:03 AM 28.4 °F 18.0 °F - N/A% 29.65 in - South 12.7 mph - N/A   Clear
5:15 AM 28.4 °F 18.5 °F - N/A% 29.65 in - South 11.5 mph - N/A   Clear
5:27 AM 28.4 °F 18.5 °F - N/A% 29.65 in - South 11.5 mph - N/A   Clear
5:39 AM 28.4 °F 18.5 °F - N/A% 29.65 in - South 11.5 mph - N/A   Clear
5:51 AM 28.4 °F 18.0 °F - N/A% 29.64 in - South 12.7 mph - N/A   Clear
6:00 AM 28.4 °F 18.5 °F - N/A% 29.76 in - South 11.5 mph - N/A   Clear
6:03 AM 28.4 °F 18.5 °F - N/A% 29.64 in - South 11.5 mph - N/A   Clear
6:15 AM 28.4 °F 17.5 °F - N/A% 29.64 in - South 13.8 mph - N/A   Clear
6:27 AM 28.4 °F 17.5 °F - N/A% 29.63 in - SSE 13.8 mph - N/A   Clear
6:39 AM 28.4 °F 18.0 °F - N/A% 29.63 in - South 12.7 mph - N/A   Clear
6:51 AM 28.4 °F 17.5 °F - N/A% 29.63 in - South 13.8 mph - N/A   Clear
7:00 AM 28.4 °F 18.0 °F - N/A% 29.75 in - South 12.7 mph - N/A   Clear
7:03 AM 28.4 °F 18.5 °F - N/A% 29.63 in - South 11.5 mph - N/A   Clear
7:15 AM 28.4 °F 17.5 °F - N/A% 29.63 in - SSE 13.8 mph - N/A   Clear
7:27 AM 28.4 °F 17.5 °F - N/A% 29.63 in - South 13.8 mph - N/A   Clear
7:39 AM 30.2 °F 19.8 °F - N/A% 29.63 in - South 13.8 mph - N/A   Clear
7:51 AM 28.4 °F 17.0 °F - N/A% 29.63 in - South 15.0 mph - N/A   Clear
8:00 AM 30.2 °F 19.3 °F - N/A% 29.75 in - South 15.0 mph - N/A   Clear
8:03 AM 30.2 °F 19.3 °F - N/A% 29.63 in - South 15.0 mph - N/A   Clear
8:15 AM 30.2 °F 18.5 °F - N/A% 29.63 in - South 17.3 mph - N/A   Clear
8:27 AM 30.2 °F 18.9 °F - N/A% 29.63 in - South 16.1 mph - N/A   Clear
8:39 AM 30.2 °F 18.5 °F - N/A% 29.62 in - South 17.3 mph - N/A   Clear
8:51 AM 30.2 °F 18.9 °F - N/A% 29.62 in - South 16.1 mph - N/A   Clear
9:00 AM 29 °F - - % 29.74 in - South 17.3 mph - -  
9:00 AM 30.2 °F 18.1 °F - N/A% 29.74 in - South 18.4 mph - N/A   Clear
9:03 AM 30.2 °F 18.5 °F - N/A% 29.62 in - South 17.3 mph - N/A   Clear
9:15 AM 30.2 °F 18.1 °F - N/A% 29.62 in - South 18.4 mph - N/A   Clear
9:27 AM 30.2 °F 18.1 °F - N/A% 29.61 in - South 18.4 mph - N/A   Clear
9:39 AM 30.2 °F 18.1 °F - N/A% 29.60 in - SSE 18.4 mph - N/A   Clear
9:51 AM 30.2 °F 17.4 °F - N/A% 29.60 in - SSE 20.7 mph - N/A   Clear
10:00 AM 30.2 °F 17.4 °F - N/A% 29.72 in - SSE 20.7 mph - N/A   Clear
10:03 AM 30.2 °F 17.4 °F - N/A% 29.60 in - SSE 20.7 mph - N/A   Clear
10:15 AM 30.2 °F 17.4 °F - N/A% 29.60 in - SSE 20.7 mph - N/A   Clear
10:27 AM 30.2 °F 17.8 °F - N/A% 29.60 in - SSE 19.6 mph - N/A   Clear
10:39 AM 30.2 °F 17.4 °F - N/A% 29.60 in - SSE 20.7 mph - N/A   Clear
10:51 AM 30.2 °F 17.1 °F - N/A% 29.59 in - SSE 21.9 mph - N/A   Clear
11:00 AM 30.2 °F 17.4 °F - N/A% 29.71 in - SSE 20.7 mph - N/A   Clear
11:03 AM 30.2 °F 17.1 °F - N/A% 29.59 in - SSE 21.9 mph - N/A   Clear
11:15 AM 30.2 °F 17.1 °F - N/A% 29.58 in - SSE 21.9 mph - N/A   Clear
11:27 AM 30.2 °F 17.1 °F - N/A% 29.58 in - SSE 21.9 mph - N/A   Clear
11:39 AM 30.2 °F 17.4 °F - N/A% 29.58 in - SSE 20.7 mph - N/A   Clear
11:51 AM 30.2 °F 17.4 °F - N/A% 29.57 in - SSE 20.7 mph - N/A   Clear
12:00 PM 30.2 °F 17.1 °F - N/A% 29.69 in - SSE 21.9 mph - N/A   Clear
12:03 PM 30.2 °F 17.4 °F - N/A% 29.57 in - SSE 20.7 mph - N/A   Clear
12:15 PM 30.2 °F 17.1 °F - N/A% 29.56 in - SSE 21.9 mph - N/A   Clear
12:27 PM 30.2 °F 16.5 °F - N/A% 29.55 in - SSE 24.2 mph - N/A   Clear
12:39 PM 30.2 °F 16.2 °F - N/A% 29.54 in - SSE 25.3 mph - N/A   Clear
12:51 PM 30.2 °F 16.8 °F - N/A% 29.55 in - SSE 23.0 mph - N/A   Clear
1:00 PM 30.2 °F 16.5 °F - N/A% 29.67 in - SSE 24.2 mph - N/A   Clear
1:03 PM 30.2 °F 17.4 °F - N/A% 29.55 in - SSE 20.7 mph 27.6 mph N/A   Clear
1:15 PM 30.2 °F 16.8 °F - N/A% 29.54 in - SSE 23.0 mph - N/A   Clear
1:27 PM 30.2 °F 17.4 °F - N/A% 29.54 in - SSE 20.7 mph - N/A   Clear
1:28 PM 30.2 °F 17.1 °F - N/A% 29.54 in - SSE 21.9 mph - N/A   Clear
1:31 PM 30.2 °F 17.1 °F - N/A% 29.54 in - SSE 21.9 mph - N/A   Clear
1:39 PM 30.2 °F 17.4 °F - N/A% 29.54 in - SSE 20.7 mph - N/A   Clear
1:51 PM 30.2 °F 17.1 °F - N/A% 29.54 in - SSE 21.9 mph - N/A   Clear
2:00 PM 30.2 °F 17.4 °F - N/A% 29.65 in - SSE 20.7 mph - N/A   Clear
2:03 PM 30.2 °F 17.1 °F - N/A% 29.54 in - SSE 21.9 mph - N/A   Clear
2:15 PM 30.2 °F 16.8 °F - N/A% 29.53 in - SSE 23.0 mph - N/A   Clear
2:27 PM 30.2 °F 16.8 °F - N/A% 29.53 in - South 23.0 mph - N/A   Clear
2:39 PM 30.2 °F 17.1 °F - N/A% 29.53 in - SSE 21.9 mph - N/A   Clear
2:44 PM 30.2 °F 17.4 °F - N/A% 29.52 in - SSE 20.7 mph - N/A   Clear
2:51 PM 30.2 °F 17.4 °F - N/A% 29.52 in - SSE 20.7 mph - N/A   Clear
3:00 PM 30 °F - - % 29.64 in - SSE 21.9 mph - -  
3:00 PM 30.2 °F 17.1 °F - N/A% 29.64 in - SSE 21.9 mph - N/A   Clear
3:03 PM 30.2 °F 17.4 °F - N/A% 29.52 in - SSE 20.7 mph - N/A   Clear
3:15 PM 30.2 °F 17.4 °F - N/A% 29.52 in - SSE 20.7 mph - N/A   Clear
3:27 PM 30.2 °F 17.4 °F - N/A% 29.52 in - SSE 20.7 mph - N/A   Clear
3:39 PM 30.2 °F 18.1 °F - N/A% 29.52 in - South 18.4 mph - N/A   Clear
3:51 PM 30.2 °F 18.1 °F - N/A% 29.51 in - SSE 18.4 mph - N/A   Clear
4:00 PM 30.2 °F 18.5 °F - N/A% 29.62 in - SSE 17.3 mph - N/A   Clear
4:03 PM 30.2 °F 18.1 °F - N/A% 29.50 in - SSE 18.4 mph - N/A   Clear
4:15 PM 30.2 °F 17.4 °F - N/A% 29.50 in - SSE 20.7 mph - N/A   Clear
4:27 PM 30.2 °F 18.1 °F - N/A% 29.50 in - SSE 18.4 mph - N/A   Clear
4:39 PM 30.2 °F 18.5 °F - N/A% 29.50 in - South 17.3 mph - N/A   Clear
4:51 PM 30.2 °F 18.9 °F - N/A% 29.50 in - South 16.1 mph - N/A   Clear
5:00 PM 30.2 °F 19.3 °F - N/A% 29.62 in - South 15.0 mph - N/A   Clear
5:03 PM 30.2 °F 19.8 °F - N/A% 29.50 in - South 13.8 mph - N/A   Clear
5:15 PM 30.2 °F 20.2 °F - N/A% 29.50 in - South 12.7 mph - N/A   Clear
5:22 PM 30.2 °F 19.8 °F - N/A% 29.50 in - South 13.8 mph - N/A   Clear
5:27 PM 30.2 °F 19.3 °F - N/A% 29.50 in - South 15.0 mph - N/A   Clear
5:39 PM 30.2 °F 20.2 °F - N/A% 29.50 in - South 12.7 mph - N/A   Clear
5:51 PM 30.2 °F 21.3 °F - N/A% 29.50 in - South 10.4 mph - N/A   Clear
5:59 PM 30.2 °F 19.8 °F - N/A% 29.50 in - South 13.8 mph - N/A   Clear
6:00 PM 30.2 °F 19.8 °F - N/A% 29.62 in - South 13.8 mph - N/A   Clear
6:03 PM 30.2 °F 19.8 °F - N/A% 29.50 in - South 13.8 mph - N/A   Clear
6:15 PM 30.2 °F 21.3 °F - N/A% 29.49 in - South 10.4 mph - N/A   Clear
6:27 PM 30.2 °F 21.9 °F - N/A% 29.49 in - SSE 9.2 mph - N/A   Clear
6:39 PM 30.2 °F 22.6 °F - N/A% 29.49 in - SSE 8.1 mph - N/A   Clear
6:51 PM 30.2 °F 21.3 °F - N/A% 29.49 in - South 10.4 mph - N/A   Clear
7:00 PM 30.2 °F 20.2 °F - N/A% 29.61 in - South 12.7 mph - N/A   Clear
7:03 PM 30.2 °F 20.2 °F - N/A% 29.49 in - South 12.7 mph - N/A   Clear
7:15 PM 30.2 °F 21.3 °F - N/A% 29.49 in - South 10.4 mph - N/A   Clear
7:27 PM 30.2 °F 22.6 °F - N/A% 29.48 in - South 8.1 mph - N/A   Clear
7:39 PM 30.2 °F 22.6 °F - N/A% 29.48 in - SSW 8.1 mph - N/A   Clear
7:51 PM 30.2 °F 22.6 °F - N/A% 29.48 in - South 8.1 mph - N/A   Clear
8:00 PM 30.2 °F 25.4 °F - N/A% 29.60 in - South 4.6 mph - N/A   Clear
8:03 PM 30.2 °F 26.7 °F - N/A% 29.48 in - South 3.5 mph - N/A   Clear
8:15 PM 30.2 °F 26.7 °F - N/A% 29.48 in - SE 3.5 mph - N/A   Clear
8:27 PM 30.2 °F - - N/A% 29.48 in - North 2.3 mph - N/A   Clear
8:39 PM 30.2 °F 25.4 °F - N/A% 29.48 in - SE 4.6 mph - N/A   Clear
8:51 PM 30.2 °F 24.3 °F - N/A% 29.47 in - ESE 5.8 mph - N/A   Clear
9:00 PM 30 °F - - % 29.59 in - East 6.9 mph - -  
9:00 PM 30.2 °F 24.3 °F - N/A% 29.59 in - East 5.8 mph - N/A   Clear
9:03 PM 30.2 °F 25.4 °F - N/A% 29.48 in - East 4.6 mph - N/A   Clear
9:15 PM 30.2 °F 25.4 °F - N/A% 29.47 in - East 4.6 mph - N/A   Clear
9:27 PM 30.2 °F 21.9 °F - N/A% 29.47 in - ESE 9.2 mph - N/A   Clear
9:39 PM 30.2 °F 26.7 °F - N/A% 29.47 in - ENE 3.5 mph - N/A   Clear
9:51 PM 30.2 °F 26.7 °F - N/A% 29.48 in - SE 3.5 mph - N/A   Clear
10:00 PM 30.2 °F - - N/A% 29.59 in - NNE 2.3 mph - N/A   Clear
10:03 PM 30.2 °F - - N/A% 29.47 in - ENE 2.3 mph - N/A   Clear
10:15 PM 30.2 °F 24.3 °F - N/A% 29.47 in - East 5.8 mph - N/A   Clear
10:27 PM 30.2 °F 25.4 °F - N/A% 29.47 in - East 4.6 mph - N/A   Clear
10:39 PM 30.2 °F 22.6 °F - N/A% 29.47 in - ESE 8.1 mph - N/A   Clear
10:51 PM 30.2 °F 22.6 °F - N/A% 29.47 in - East 8.1 mph - N/A   Clear
11:00 PM 30.2 °F 22.6 °F - N/A% 29.59 in - East 8.1 mph - N/A   Clear
11:03 PM 30.2 °F 24.3 °F - N/A% 29.47 in - East 5.8 mph - N/A   Clear
11:15 PM 28.4 °F 23.3 °F - N/A% 29.47 in - East 4.6 mph - N/A   Clear
11:22 PM 30.2 °F 24.3 °F - N/A% 29.47 in - ENE 5.8 mph - N/A   Overcast
11:23 PM 30.2 °F 24.3 °F - N/A% 29.46 in - ENE 5.8 mph - N/A   Overcast
11:26 PM 30.2 °F 23.4 °F - N/A% 29.46 in - ENE 6.9 mph - N/A   Clear
11:27 PM 30.2 °F 23.4 °F - N/A% 29.46 in - ENE 6.9 mph - N/A   Clear
11:39 PM 30.2 °F 21.3 °F - N/A% 29.46 in - East 10.4 mph - N/A   Overcast
11:51 PM 28.4 °F 22.2 °F - N/A% 29.47 in - East 5.8 mph - N/A   Overcast